Погода в Русской Журавке

Россия / Воронежская область     50°21′40″N   40°33′32″E
темп.,
°C
ветер,
м/с
пор.,
м/с
влажн.,
%
обл.,
%
осадки,
мм/ч
давл.,
гПа
погр.,
м
17 августа, ср
ср1700:00+27в51228100 0.0 1013451
03:00+25св51032100 0.0 1012286
06:00+24св71536100 0.0 1011399
09:00+29в81323100 0.0 1010825
12:00+35в91216100 0.0 10082700
15:00+37вюв791850 0.2 10063524
18:00+31всв483487 1.0 10061076
21:00+24всв7164685 3.3 1008357
18 августа, чт
чт1800:00+25в71532100 0.0 1008517
03:00+23всв6123699 0.0 1008388
06:00+21всв6114789 0.0 1008308
09:00+28в572860 0.0 1008753
12:00+34ююв452685 0.0 10071850
15:00+35юз4521100 0.0 10063390
18:00+31всв693284 0.1 1007700
21:00+22юв81477100 1.8 1011573
19 августа, пт
пт1900:00+20в61286100 0.0 1011354
03:00+19в7157612 0.3 1011484
06:00+18всв7167773 0.9 1012541
09:00+24в81248100 1.6 1012832
12:00+26в101345100 0.3 10131193
15:00+25в81345100 0.3 10141330
18:00+24св111651100 0.0 1014955
21:00+25всв121942100 0.1 10141310
20 августа, сб
сб2000:00+24в111937100 0.0 1014849
03:00+23вюв111942100 0.0 1016759
06:00+24вюв111740100 0.0 1017882
09:00+25юв71334100 0.0 10191284
12:00+28в101428100 0.0 10181777
15:00+30в111621100 0.0 10182426
18:00+28в101521100 0.0 10181343
21:00+26в101722100 0.0 1019895
21 августа, вс
вс2100:00+25вюв91721100 0.0 1019802
03:00+23вюв71417100 0.0 1020608
06:00+21вюв71520100 0.0 1020558
09:00+25вюв91318100 0.0 1020962
12:00+29вюв91112100 0.0 10191798
15:00+31вюв81010100 0.0 10182418
18:00+29в7101499 0.0 10181035
21:00+23в61522100 0.0 1018351